Fernandina Beach, FL

4:03 AM EST on December 09, 2019 (GMT -0500)
Fernandina Beach

Weather History for KFHB - October, 2019

Change the Weather History Date:

Sunday, October 6, 2019

  Actual Average (KNRB) Record (KNRB)
Temperature  
Mean Temperature 79 °F -  
Max Temperature 84 °F 79 °F 90 °F (2001)
Min Temperature 74 °F 69 °F 57 °F (2014)
Cooling Degree Days 14    
Growing Degree Days 29 (Base 50)    
Moisture  
Dew Point 72 °F    
Average Humidity 77    
Maximum Humidity 95    
Minimum Humidity 65    
Precipitation  
Precipitation 0.11 in - - ()
Sea Level Pressure  
Sea Level Pressure 30.08 in    
Wind  
Wind Speed 14 mph (East)    
Max Wind Speed 21 mph    
Max Gust Speed 26 mph    
Visibility 10 miles    
Events Rain , Thunderstorm    
Averages and records for this station are not official NWS values.
T = Trace of Precipitation, MM = Missing Value Source: NWS Daily Summary

Daily Weather History Graph

Daily Weather History Graph

Search for Another Location

Airport or City:

Astronomy

Oct. 06, 2019 Rise Set
Actual Time 7:22 AM EDT 7:05 PM EDT
Civil Twilight 6:58 AM EDT 7:29 PM EDT
Nautical Twilight 6:30 AM EDT 7:57 PM EDT
Astronomical Twilight 6:02 AM EDT 8:25 PM EDT
Moon 3:13 PM EDT (10/6) 12:49 AM EDT (10/6)
Length of Visible Light 12h 31m
Length of Day
11h 42m
First Quarter, 59% of the Moon is Illuminated
Oct 6
First Quarter
Oct 13
Full
Oct 21
Last Quarter
Oct 27
New
Nov 4
First Quarter

Hourly Weather History & Observations

Time (EDT) Temp. Heat Index Dew Point Humidity Pressure Visibility Wind Dir Wind Speed Gust Speed Precip Events Conditions
12:15 AM 75.0 °F - 71.8 °F 90% 30.08 in 10.0 mi SE 16.1 mph 26.5 mph N/A Rain Light Rain
12:35 AM 74.5 °F - 72.7 °F 94% 30.08 in 10.0 mi SE 10.4 mph - N/A Rain Light Rain
12:55 AM 74.8 °F - 73.0 °F 94% 30.08 in 7.0 mi ESE 8.1 mph - N/A Rain Light Rain
1:15 AM 75.6 °F - 73.8 °F 94% 30.07 in 10.0 mi ESE 10.4 mph - N/A   Overcast
1:35 AM 76.1 °F - 74.5 °F 95% 30.06 in 10.0 mi East 5.8 mph - N/A   Mostly Cloudy
1:55 AM 76.6 °F - 74.8 °F 94% 30.06 in 10.0 mi East 4.6 mph - N/A   Overcast
2:15 AM 78.3 °F - 72.9 °F 83% 30.07 in 10.0 mi East 16.1 mph 23.0 mph N/A   Overcast
2:35 AM 78.8 °F - 72.5 °F 81% 30.06 in 10.0 mi East 13.8 mph 19.6 mph N/A   Mostly Cloudy
2:55 AM 78.4 °F - 71.4 °F 79% 30.06 in 10.0 mi East 16.1 mph 20.7 mph N/A   Scattered Clouds
3:15 AM 78.8 °F - 71.1 °F 77% 30.06 in 10.0 mi East 17.3 mph - N/A   Clear
3:35 AM 79.0 °F - 70.2 °F 74% 30.05 in 10.0 mi East 12.7 mph - N/A   Scattered Clouds
3:55 AM 78.6 °F - 70.9 °F 77% 30.05 in 10.0 mi East 15.0 mph - N/A   Scattered Clouds
4:35 AM 79.2 °F - 72.1 °F 79% 30.05 in 10.0 mi East 17.3 mph 23.0 mph N/A   Mostly Cloudy
4:55 AM 76.1 °F - 73.4 °F 91% 30.05 in 10.0 mi East 9.2 mph - N/A   Overcast
5:15 AM 75.9 °F - 71.4 °F 86% 30.05 in 10.0 mi East 10.4 mph - N/A Rain Light Rain
5:35 AM 78.8 °F - 72.0 °F 79% 30.05 in 10.0 mi East 16.1 mph 23.0 mph N/A   Overcast
5:55 AM 79.0 °F - 70.7 °F 76% 30.06 in 10.0 mi East 17.3 mph 24.2 mph N/A   Mostly Cloudy
6:15 AM 79.0 °F - 70.0 °F 74% 30.06 in 10.0 mi East 15.0 mph 21.9 mph N/A   Scattered Clouds
6:35 AM 79.2 °F - 69.3 °F 72% 30.07 in 10.0 mi East 20.7 mph 25.3 mph N/A   Scattered Clouds
6:55 AM 79.0 °F - 68.7 °F 71% 30.08 in 10.0 mi East 16.1 mph 23.0 mph N/A   Clear
7:15 AM 79.0 °F - 69.6 °F 73% 30.08 in 10.0 mi East 12.7 mph 21.9 mph N/A   Mostly Cloudy
7:35 AM 79.0 °F - 68.4 °F 70% 30.09 in 10.0 mi East 17.3 mph 24.2 mph N/A   Mostly Cloudy
7:55 AM 79.5 °F - 68.9 °F 70% 30.09 in 10.0 mi East 16.1 mph 25.3 mph N/A   Scattered Clouds
8:15 AM 79.7 °F - 69.3 °F 70% 30.10 in 10.0 mi East 15.0 mph 21.9 mph N/A   Mostly Cloudy
8:35 AM 80.4 °F 83.8 °F 70.2 °F 71% 30.10 in 7.0 mi East 17.3 mph - N/A   Scattered Clouds
8:55 AM 80.2 °F 83.6 °F 70.3 °F 72% 30.10 in 10.0 mi East 15.0 mph 23.0 mph N/A   Mostly Cloudy
9:15 AM 81.1 °F 84.7 °F 70.2 °F 69% 30.10 in 10.0 mi East 13.8 mph 24.2 mph N/A   Overcast
9:35 AM 82.4 °F 86.5 °F 70.5 °F 67% 30.10 in 10.0 mi East 18.4 mph 23.0 mph N/A   Mostly Cloudy
9:55 AM 81.1 °F 85.0 °F 70.9 °F 71% 30.11 in 10.0 mi East 13.8 mph 18.4 mph N/A   Scattered Clouds
10:15 AM 82.9 °F 87.2 °F 70.7 °F 66% 30.11 in 10.0 mi East 16.1 mph 21.9 mph N/A   Mostly Cloudy
10:35 AM 82.4 °F 87.0 °F 71.4 °F 69% 30.11 in 10.0 mi East 15.0 mph 20.7 mph N/A   Overcast
10:55 AM 84.4 °F 89.7 °F 71.2 °F 65% 30.12 in 7.0 mi East 15.0 mph 19.6 mph N/A   Overcast
11:15 AM 81.7 °F 85.8 °F 71.2 °F 70% 30.11 in 10.0 mi East 15.0 mph - N/A   Overcast
11:35 AM 83.8 °F 89.8 °F 72.7 °F 69% 30.11 in 10.0 mi East 15.0 mph - N/A   Mostly Cloudy
11:55 AM 84.2 °F 90.3 °F 72.5 °F 68% 30.11 in 10.0 mi East 13.8 mph - N/A   Scattered Clouds
12:15 PM 84.9 °F 90.7 °F 72.0 °F 65% 30.12 in 10.0 mi East 13.8 mph 21.9 mph N/A   Scattered Clouds
12:35 PM 84.7 °F 91.0 °F 72.5 °F 67% 30.11 in 10.0 mi East 16.1 mph - N/A   Scattered Clouds
12:55 PM 83.8 °F 89.8 °F 72.7 °F 69% 30.11 in 10.0 mi East 16.1 mph - N/A   Scattered Clouds
1:15 PM 82.9 °F 88.3 °F 72.1 °F 70% 30.10 in 10.0 mi East 17.3 mph 21.9 mph N/A   Mostly Cloudy
1:35 PM 84.9 °F 91.1 °F 72.3 °F 66% 30.09 in 10.0 mi East 15.0 mph 23.0 mph N/A   Scattered Clouds
1:55 PM 84.7 °F 91.0 °F 72.7 °F 67% 30.09 in 10.0 mi East 12.7 mph - N/A   Scattered Clouds
2:15 PM 84.6 °F 90.0 °F 71.4 °F 65% 30.08 in 10.0 mi East 13.8 mph 24.2 mph N/A   Scattered Clouds
2:35 PM 84.4 °F 90.3 °F 72.5 °F 67% 30.07 in 10.0 mi East 15.0 mph 21.9 mph N/A   Mostly Cloudy
2:55 PM 84.2 °F 90.6 °F 73.2 °F 69% 30.07 in 10.0 mi East 15.0 mph - N/A   Mostly Cloudy
3:15 PM 83.7 °F 89.4 °F 72.5 °F 69% 30.06 in 10.0 mi East 16.1 mph 23.0 mph N/A   Scattered Clouds
3:35 PM 84.0 °F 89.9 °F 72.5 °F 68% 30.06 in 10.0 mi East 13.8 mph 24.2 mph N/A   Mostly Cloudy
3:55 PM 84.0 °F 89.3 °F 71.4 °F 66% 30.06 in 10.0 mi East 19.6 mph 26.5 mph N/A   Scattered Clouds
4:15 PM 82.9 °F 88.5 °F 72.5 °F 71% 30.07 in 10.0 mi East 17.3 mph 24.2 mph N/A   Mostly Cloudy
4:35 PM 81.7 °F 86.7 °F 72.9 °F 74% 30.06 in 10.0 mi East 15.0 mph 19.6 mph N/A   Overcast
4:55 PM 81.3 °F 86.5 °F 73.6 °F 77% 30.06 in 10.0 mi East 13.8 mph 21.9 mph N/A   Overcast
5:15 PM 80.6 °F 85.2 °F 73.2 °F 78% 30.06 in 10.0 mi East 18.4 mph 25.3 mph N/A   Overcast
5:35 PM 81.3 °F 86.3 °F 73.0 °F 76% 30.06 in 7.0 mi East 15.0 mph 23.0 mph N/A   Mostly Cloudy
5:55 PM 80.6 °F 84.7 °F 72.0 °F 75% 30.06 in 10.0 mi East 18.4 mph 24.2 mph N/A   Overcast
6:15 PM 79.9 °F - 71.8 °F 76% 30.06 in 10.0 mi East 16.1 mph 24.2 mph N/A   Overcast
6:35 PM 78.4 °F - 71.2 °F 78% 30.07 in 10.0 mi ESE 12.7 mph 20.7 mph N/A   Overcast
6:55 PM 77.4 °F - 72.0 °F 83% 30.07 in 10.0 mi ESE 17.3 mph 24.2 mph N/A   Overcast
7:15 PM 75.6 °F - 72.1 °F 89% 30.07 in 5.0 mi ESE 16.1 mph 20.7 mph N/A Rain Rain
7:35 PM 76.3 °F - 71.2 °F 84% 30.07 in 10.0 mi ESE 11.5 mph - N/A   Overcast
7:55 PM 77.2 °F - 71.1 °F 81% 30.07 in 10.0 mi ESE 11.5 mph - N/A   Overcast
8:15 PM 77.9 °F - 72.0 °F 82% 30.07 in 10.0 mi East 10.4 mph - N/A   Overcast
8:35 PM 74.7 °F - 72.5 °F 93% 30.08 in 3.0 mi ENE 16.1 mph 21.9 mph N/A Rain Heavy Rain
8:55 PM 74.1 °F - 72.7 °F 95% 30.08 in 10.0 mi ENE 3.5 mph - 0.04 in Thunderstorm Overcast
9:15 PM 76.3 °F - 73.2 °F 90% 30.07 in 10.0 mi East 20.7 mph - 0.02 in   Overcast
9:35 PM 77.5 °F - 72.0 °F 83% 30.08 in 10.0 mi East 17.3 mph 23.0 mph 0.03 in   Overcast
9:55 PM 78.1 °F - 71.8 °F 81% 30.08 in 10.0 mi East 18.4 mph 25.3 mph 0.04 in   Overcast
10:15 PM 78.4 °F - 71.1 °F 78% 30.08 in 10.0 mi East 17.3 mph 23.0 mph 0.01 in   Mostly Cloudy
10:35 PM 78.4 °F - 71.8 °F 80% 30.08 in 10.0 mi East 15.0 mph 20.7 mph 0.02 in   Mostly Cloudy
10:55 PM 78.8 °F - 71.4 °F 78% 30.08 in 10.0 mi ESE 15.0 mph 26.5 mph 0.02 in   Overcast
11:15 PM 78.6 °F - 72.1 °F 80% 30.08 in 10.0 mi East 12.7 mph 20.7 mph N/A   Mostly Cloudy
11:35 PM 79.0 °F - 70.5 °F 75% 30.07 in 10.0 mi East 15.0 mph 23.0 mph N/A   Scattered Clouds
11:55 PM 78.8 °F - 70.7 °F 76% 30.06 in 10.0 mi East 15.0 mph 21.9 mph 0.01 in   Scattered Clouds